Regional Weather Roundup
Issued by NWS

Home | Current Version | Previous Version | Text Only | Print | Product List | Glossary On
Versions: 1 2 3 4 5 6 7 8 9 10 11 12 13 14 15 16 17 18 19 20 21 22 23 24 25 26 27 28 29 30 31 32 33 34 35 36 37 38 39 40 41 42 43 44 45 46 47 48 49 50
000
ASUS43 KLOT 011110
RWRIL

ILLINOIS REGIONAL WEATHER ROUNDUP
NATIONAL WEATHER SERVICE CHICAGO/ROMEOVILLE IL
600 AM CDT MON SEP 01 2014

NOTE: "FAIR" INDICATES FEW OR NO CLOUDS BELOW 12,000 FEET WITH NO
SIGNIFICANT WEATHER AND/OR OBSTRUCTIONS TO VISIBILITY.

* THESE STATIONS ARE NOT UNDER NWS QUALITY CONTROL. THEY ALSO MAY NOT
  REPORT WEATHER SUCH AS PRECIPITATION OR FOG.

ILZ001-002-007-009-015-016-024-011200-
NORTHWEST ILLINOIS

CITY           SKY/WX    TMP DP  RH WIND       PRES   REMARKS
MOLINE         CLOUDY    66  64  93 SE15      29.70F
STERLING*      MOCLDY    66  63  88 S6        29.73S
SAVANNA*       MOCLDY    66  64  93 SE8       29.69F
$$

ILZ003-004-008-010-011-017-018-011200-
NORTH CENTRAL ILLINOIS

CITY           SKY/WX    TMP DP  RH WIND       PRES   REMARKS
ROCKFORD       CLOUDY    70  63  78 E9        29.71F
FREEPORT*      CLOUDY    65  63  92 SE8       29.72F
ROCHELLE*      CLOUDY    70  69  95 SE6       29.73F FOG
DE KALB*       CLOUDY    69  68  97 SE7       29.76F FOG
PERU*          MOCLDY    69  68  94 S7        29.76F
$$

ILZ005-006-012>014-019>023-011200-
NORTHEAST ILLINOIS

CITY           SKY/WX    TMP DP  RH WIND       PRES   REMARKS
CHICAGO-OHARE  CLOUDY    74  67  78 S10       29.79F
CHICAGO-MIDWAY CLOUDY    75  71  87 S12       29.79F
AURORA         CLOUDY    73  69  87 SE7       29.77F
LANSING*         N/A    N/A N/A N/A MISG        N/A
JOLIET*        CLOUDY    73  69  88 S10G16    29.81S
WAUKEGAN       MOCLDY    72  69  90 S9        29.77F
DUPAGE AIRPORT CLOUDY    73  70  90 S12       29.78F
KANKAKEE*      CLOUDY    72  71  96 S12       29.83S
WHEELING       CLOUDY    74  70  87 S9        29.79F
MORRIS*        CLOUDY    73  73  99 S8        29.78F
ROMEOVILLE*    CLOUDY    73  71  95 S12       29.80S
NORTHERLY ISL    N/A     74  69  85 SW12        N/A
$$

LMZ740>746-011200-
SOUTHERN LAKE MICHIGAN

STATION/POSITION SKY/WX   TEMP    WIND        PRES    VSBY  WAVE
                          AIR SEA DIR/SP/G                  HT/PER
                          (F)     (DEG/KT/KT) (MB)    (MI)  (FT/S)
SOUTHERN BUOY              72 70  170/ 14/ 17 1008.4F
WAUKEGAN HARBOR            69     190/ 12/ 12   N/A
HARRISON CRIB              72     180/ 18/ 20   N/A
BURNHAM HARBOR             74     170/  9/ 14   N/A
CALUMET HARBOR             73     170/ 10/ 13 1007.9S
MICHIGAN CITY              72     140/ 11/ 19   N/A
MICHIGAN CITY 6N           72 72  170/ 14/ 19   N/A           1/ 2
ST. JOSEPH                 72 72  150/ 14/ 17   N/A           2/ 3
$$

ILZ025>027-034>036-040-047-049-050-058-095>099-011200-
WEST-CENTRAL ILLINOIS

CITY           SKY/WX    TMP DP  RH WIND       PRES   REMARKS
QUINCY         LGT RAIN  71  65  81 SW14      29.86R
GALESBURG*     CLOUDY    65  64  97 SE5       29.77F
MACOMB*        CLOUDY    66  65  98 SE3       29.81R
JACKSONVILLE*  MOCLDY    75  72  92 S9        29.84R
PITTSFIELD*    CLOUDY    74  67  79 SW8       29.88R
$$

ILZ028>032-037-038-041>044-048-051>054-059>061-011200-
CENTRAL ILLINOIS

CITY           SKY/WX    TMP DP  RH WIND       PRES   REMARKS
PONTIAC        CLOUDY    75  73  94 S8        29.81F
DECATUR        MOCLDY    74  71  91 S14       29.86S
PEORIA         MOCLDY    72  66  81 CALM      29.80S
LACON*         PTCLDY    68  67  94 S3        29.78S
LINCOLN*       MOCLDY    74  72  93 S8        29.80R FOG
SPRINGFIELD    PTCLDY    75  71  87 S13G20    29.83S
TAYLORVILLE    PTCLDY    72  70  94 S13       29.86S FOG
$$

ILZ033-039-045-046-055>057-062-063-011200-
EAST-CENTRAL ILLINOIS

CITY           SKY/WX    TMP DP  RH WIND       PRES   REMARKS
CHAMPAIGN      MOCLDY    72  71  97 S9        29.87F FOG
DANVILLE*      CLOUDY    72  71  96 S13       29.85F
RANTOUL*       CLOUDY    74  70  88 S9        29.87S FOG
MATTOON        CLOUDY    73  71  93 S12G20    29.88S
PARIS*         MOCLDY    72  71  97 S9        29.90F
$$

ILZ079-100>102-011200-
SOUTHWEST ILLINOIS

CITY           SKY/WX    TMP DP  RH WIND       PRES   REMARKS
BELLEVILLE     MOCLDY    74  74  99 VRB3      29.90R
CAHOKIA*       MOCLDY    76  72  87 S7        29.89R
SPARTA*        CLEAR     73  71  93 S10       29.92S
$$

ILZ064>066-069>071-074>076-080>082-084>086-088>090-092>094-011200-
SOUTH-CENTRAL ILLINOIS

CITY           SKY/WX    TMP DP  RH WIND       PRES   REMARKS
CARBONDALE     CLOUDY    75  71  87 SW13      29.96R
CAIRO*         CLOUDY    77  74  88 S8        29.97R
EFFINGHAM*     CLOUDY    73  70  91 S7        29.90S
MARION         HVY RAIN  77  73  88 SW13G21   29.97R
MT. VERNON     MOCLDY    75  70  83 S13       29.94R
CENTRALIA*     CLEAR     73  70  88 S12       29.91S
SALEM*         PTCLDY    75  73  93 S10       29.91S
METROPOLIS*    CLOUDY    76  75  99 SW6       29.98R
$$

ILZ067-068-072-073-078-083-087-091-011200-
SOUTHEAST ILLINOIS

CITY           SKY/WX    TMP DP  RH WIND       PRES   REMARKS
LAWRENCEVILLE  CLOUDY    74  73  97 S13       29.95R
FLORA*         PTCLDY    72  71  97 S10       29.93S
FAIRFIELD*     MOCLDY    73  73 100 S8        29.94R
HARRISBURG*    MOCLDY    75  74  97 SW8       29.98R
ROBINSON*      MOCLDY    74  73  97 S8        29.94S
CARMI*         CLOUDY    75  74  97 S5        29.96R
$$

ABBREVIATIONS USED IN REMARKS
   TC - TEMPERATURE IN CELSIUS
  WCI - WIND CHILL INDEX
   HX - HEAT INDEX
  VSB - VISIBILITY
$$



USA.gov is the U.S. government's official web portal to all federal, state and local government web resources and services.